Location: Celina Division
(33.3022°N, 96.7580°W)
Time: 03:39:38
(UTC+00:00)

AO-27 - Visible Passes

Search period start: 21 March 2023 00:00
Search period end: 31 March 2023 00:00
Orbit: 785 x 796 km, 98.9° (Epoch: 20 March)

Date Brightness Start Highest point End Pass type
(mag) Time Alt. Az. Time Alt. Az. Time Alt. Az.
21 Mar 8.1 01:37:26 10° SE 01:42:15 40° ENE 01:47:05 10° N visible
21 Mar 10.0 03:18:09 10° SW 03:21:48 19° W 03:25:28 10° NW visible
22 Mar 8.9 01:09:22 10° ESE 01:13:11 21° ENE 01:17:01 10° NNE visible
22 Mar 8.9 02:48:13 14° SSW 02:52:20 38° W 02:57:10 10° NNW visible
23 Mar 7.7 02:18:31 14° S 02:22:59 78° WSW 02:28:12 10° NNW visible
24 Mar 7.8 01:48:48 10° SSE 01:53:45 53° ENE 01:58:48 10° N visible
24 Mar 10.3 03:30:38 10° SW 03:33:27 15° W 03:36:17 10° WNW visible
25 Mar 8.6 01:20:21 10° SE 01:24:39 27° ENE 01:28:58 10° NNE visible
25 Mar 9.4 02:59:50 12° SSW 03:03:57 29° W 03:08:28 10° NW visible
26 Mar 8.1 02:30:08 14° S 02:34:33 60° WSW 02:39:42 10° NNW visible
27 Mar 7.6 02:00:25 12° SSE 02:05:17 69° ENE 02:10:28 10° N visible
27 Mar 10.5 03:43:54 10° WSW 03:45:08 11° W 03:46:22 10° WNW visible
28 Mar 8.3 01:31:29 10° SE 01:36:07 35° ENE 01:40:48 10° N visible
28 Mar 9.8 03:11:33 10° SSW 03:15:35 23° W 03:19:39 10° NW visible
29 Mar 9.1 01:03:38 10° ESE 01:07:05 18° ENE 01:10:33 10° NNE visible
29 Mar 8.6 02:41:44 13° S 02:46:08 45° W 02:51:08 10° NNW visible
30 Mar 7.6 02:12:02 12° SSE 02:16:49 89° ENE 02:22:03 10° NNW visible
